METEOR 2-11 DEB, 60008

Orbit data source: Space-Track

METEOR 2-11 DEB, 60008 is space debris in LEO originally from a launch on Thu, 05 Jul 1984 UTC launched from the Plesetsk Missile And Space Complex (PKMTR). Debris objects in space refer to the collection of defunct objects orbiting the Earth. Examples of debris include non-operational satellites, rocket bodies, and fragments generated from explosions, collisions, or faulty payload assembly.

Loading next visibility...
METEOR 2-11 DEB details
Identifier
60008, 1984-072AD
Orbit
LEO
Last TLE update7 hours ago
Origin
Flag of CISVVKO (CIS)
ManufacturerUnknown
MissionSpacecraft
Bus & MotorUnknown
MassUnknown
Launch date (UTC)
1984-07-05 (40 years ago)
Launch vehicleUnknown
Launch site
Plesetsk Missile And Space Complex (PKMTR)
Object type
Payload
Rocket body
Debris
Shape & HBRUnknown
Radar Cross SectionSmall (<0.1 m²)

Expand to show TLE details & history

TLE from 7 hours ago
0 METEOR 2-11 DEB
1 60008U 84072AD  24361.43374038  .00006824  00000-0  43038-2 0  9993
2 60008  82.5084  47.8312 0030041 328.9979  30.9418 14.03833339649464
Epoch: 2024-12-26T10:24Z
Definitive object data (Epoch: 2024-12-26T10:24:35.168Z)
Latitude-0.00001°
Longitude156.27147°
Altitude864.791 km
Speed7.43 km/s
True Right ascension03h 11m 19s
True Declination0° 00' 00"
Sunlit
Object was in full shadow at TLE epoch
Visualization TLE readout
Latitude-34.97216°
Longitude150.79209°
Altitude871.966 km
Speed7.426 km/s
Apparent Right ascension03h 33m 36s
Apparent Declination-37° 44' 36"
Sunlit
Object is in daylight
Visualization observer readout
Local Sidereal Time16:27:25
Azimuth82.573° E
Elevation-79.306°
Doppler factor1
Orbital elements
Apogee altitude899.475 km
Perigee altitude855.88 km
Semi-major axis7,255.814 km
Eccentricity0.0030041
Inclination82.5084°
RAAN47.8312°
Arg. of periapsis328.9979°
True anomaly31.11937°
Mean anomaly30.9418°
Eccentric anomaly31.03053°
Mean motion3.51167 °/min
BSTAR0.0043038
Orbital period102.52 mins
Loading maneuver chart data...
Loading historical data...
Loading historical data...
Loading historical data...
Loading historical data...
Loading historical data...
Loading historical data...
Loading historical data...

METEOR 2-11 DEB Visibility forecast

Observer location: undefined°, undefined

Span
Click to sort rows by Start time (UTC) header in descending order
Start Az.
Max El. time (UTC)
Max El. Az.
Max El.
End time (UTC)
End Az.
10 mins2024-12-27 03:37:09.270Z165.407° S2024-12-27 03:42:09.270Z95.313° ESE38.028°2024-12-27 03:47:09.270Z19.701° NNE
6 mins2024-12-27 05:23:09.270Z254.185° W2024-12-27 05:26:09.270Z292.57° NW19.285°2024-12-27 05:29:09.270Z328.912° NNW
9 mins2024-12-27 14:22:09.270Z18.865° NNE2024-12-27 14:26:09.270Z77.405° E29.271°2024-12-27 14:31:09.270Z138.514° SSE
8 mins2024-12-27 16:06:09.270Z319.197° NNW2024-12-27 16:09:09.270Z275.164° WNW27.523°2024-12-27 16:14:09.270Z212.903° SW
|